Regional Weather Roundup
Issued by NWS Green Bay, WI

Home | Current Version | Previous Version | Graphics & Text | Print | Product List | Glossary Off
Versions: 1 2 3 4 5 6 7 8 9 10 11 12 13 14 15 16 17 18 19 20 21 22 23 24 25 26 27 28 29 30 31 32 33 34 35 36 37 38 39 40 41 42 43 44 45 46 47 48 49 50

000
ASUS43 KGRB 041500
RWRGRB

NORTH-CENTRAL AND NORTHEAST WISCONSIN REGIONAL WEATHER ROUNDUP
NATIONAL WEATHER SERVICE GREEN BAY WI
1000 AM CDT TUE AUG 04 2015

WIZ005-009-010>012-018-019-041600-
NORTH CENTRAL WISCONSIN

CITY           SKY/WX    TMP DP  RH WIND       PRES   REMARKS
IRONWOOD       PTSUNNY   61  54  77 N8        29.94R
MANITOWISH WTR NOT AVBL
ARBOR VITAE    NOT AVBL
EAGLE RIVER    NOT AVBL
LAND O LAKES   NOT AVBL
RHINELANDER    SUNNY     66  51  58 NW10      29.98R
PHILLIPS       MOSUNNY   65  54  68 W7        29.99R
ANTIGO         NOT AVBL
TOMAHAWK       NOT AVBL
MERRILL        NOT AVBL
$$

WIZ013-073-041600-
NORTHEAST WISCONSIN

CITY           SKY/WX    TMP DP  RH WIND       PRES   REMARKS
IRON MOUNTAIN  LGT RAIN  62  55  77 NW14      29.92R
MARINETTE      CLOUDY    64  54  68 NW6       29.92S
$$

WIZ017-030-035>037-045-041600-
CENTRAL WISCONSIN

CITY           SKY/WX    TMP DP  RH WIND       PRES   REMARKS
MEDFORD        NOT AVBL
WAUSAU         SUNNY     70  52  52 NW12      29.97R
MOSINEE        SUNNY     68  54  60 NW12      29.99S
MARSHFIELD     SUNNY     71  51  49 NW12      29.99F
WISC RAPIDS    SUNNY     72  50  45 NW10      29.99F
STEVENS POINT  NOT AVBL
WAUPACA        NOT AVBL
SHAWANO        NOT AVBL
CLINTONVILLE   SUNNY     70  52  52 NW9       29.95S
$$

WIZ038-039-048-051-041600-
FOX VALLEY

CITY           SKY/WX    TMP DP  RH WIND       PRES   REMARKS
NWS GREEN BAY  SUNNY     70  57  63 W9        29.95R
APPLETON       MOSUNNY   68  52  56 W12       29.96S
OSHKOSH        SUNNY     70  56  61 NW10      29.95S
FOND DU LAC    SUNNY     71  58  63 NW10      29.96S
$$

WIZ022-050-052-041600-
EAST CENTRAL WISCONSIN

CITY           SKY/WX    TMP DP  RH WIND       PRES   REMARKS
STURGEON BAY   CLOUDY    63  55  77 W5        29.96R
MANITOWOC      MOSUNNY   70  55  60 MISG      29.94S
SHEBOYGAN      SUNNY     71  59  65 NW10      29.94S
$$

LMZ563-521-522-541>543-041600-
LAKESHORE

STATION/POSITION TIME  TEMP    WIND        PRES    VSBY  WAVE
                       AIR SEA DIR/SP/G                  HT/PER
                 (UTC) (F)     (DEG/KT/KT) (MB)    (MI)  (FT/S)
SHEBOYGAN LKSHOR 1400   67     270/ 10/ 11 1013.9R
KEWAUNEE LKSHORE 1400   66     320/  3/  6 1013.0R
NORTHPORT PIER   1400   64     320/  9/ 10 1012.5R
N MID LAKE BUOY  1350   62 68  320/  8/  8 1012.2R         1/ 3
S GREEN BAY BUOY 1400   64 71  320/  8/ 10 1014.8
SISTER BAY LKSHO 1418   66     350/ 11/ 12   N/A
CHAMBERS ISLAND  1400   64     300/  4/  7 1013.2R
MENOMINEE LKSHOR 1400   62     320/  5/  8 1013.8R
$$



USA.gov is the U.S. government's official web portal to all federal, state and local government web resources and services.